Total_Precipitation_Accumulation
2.58 2.67 2.70 2.78 2.67 2.49 2.47 2.59 2.72 2.50 2.30 2.09 1.89 1.71 1.76 1.73 1.82 1.59 1.52 1.57 1.55 1.44 1.31 1.22 1.19 1.32 1.63 2.03 2.24 2.20 2.26 2.55 3.01 3.37 3.20 3.09 3.01 2.98
2.26 2.35 2.41 2.48 2.49 2.44 2.43 2.48 2.52 2.48 2.35 2.10 1.80 1.55 1.61 1.66 1.83 1.56 1.60 1.80 1.70 1.54 1.32 1.24 1.20 1.19 1.30 1.44 1.55 1.52 1.50 1.61 1.99 2.69 2.96 2.95 2.97 3.06
1.95 1.99 2.13 2.24 2.45 2.49 2.46 2.44 2.44 2.37 2.22 2.08 1.83 1.62 1.58 1.68 1.76 1.63 1.65 1.70 1.61 1.56 1.41 1.32 1.21 1.25 1.32 1.36 1.40 1.32 1.22 1.20 1.32 1.60 1.95 2.16 2.37 2.64
1.74 1.77 1.89 1.98 2.14 2.27 2.39 2.30 2.33 2.32 2.28 2.22 1.99 1.79 1.70 1.70 1.77 1.73 1.60 1.58 1.59 1.66 1.49 1.40 1.30 1.22 1.30 1.29 1.38 1.43 1.33 1.20 1.17 1.21 1.36 1.56 1.78 2.03
1.54 1.59 1.66 1.75 1.86 1.98 2.09 2.18 2.22 2.21 2.30 2.26 2.06 1.87 1.71 1.66 1.71 1.65 1.59 1.66 1.57 1.68 1.63 1.49 1.43 1.32 1.31 1.30 1.29 1.39 1.41 1.30 1.18 1.18 1.24 1.35 1.50 1.67
1.34 1.32 1.35 1.38 1.51 1.65 1.77 1.93 2.09 2.23 2.30 2.32 2.16 1.92 1.73 1.69 1.77 1.81 1.78 1.68 1.67 1.60 1.64 1.60 1.59 1.53 1.42 1.37 1.26 1.26 1.35 1.37 1.23 1.18 1.19 1.21 1.23 1.29
1.42 1.30 1.19 1.20 1.33 1.43 1.49 1.74 1.95 2.11 2.23 2.28 2.18 2.00 1.84 1.76 1.73 1.73 1.79 1.87 1.87 1.72 1.67 1.57 1.53 1.39 1.27 1.28 1.25 1.18 1.17 1.18 1.14 1.07 1.01 0.96 0.97 1.02
1.37 1.34 1.34 1.31 1.19 1.15 1.23 1.40 1.64 1.83 1.99 2.10 2.12 1.93 1.74 1.72 1.79 1.82 1.81 1.86 1.90 1.77 1.72 1.77 1.71 1.57 1.40 1.26 1.31 1.22 1.16 1.14 1.14 1.14 1.06 0.99 0.99 1.00
1.33 1.32 1.34 1.31 1.39 1.23 1.20 1.20 1.22 1.39 1.65 1.86 1.88 1.78 1.82 1.76 1.76 1.73 1.70 1.68 1.69 1.73 1.76 1.78 1.75 1.64 1.46 1.38 1.46 1.37 1.29 1.23 1.19 1.20 1.19 1.10 1.04 1.00
1.43 1.45 1.49 1.50 1.43 1.55 1.51 1.38 1.26 1.22 1.34 1.29 1.35 1.65 1.80 1.86 1.88 1.89 1.91 1.81 1.72 1.73 1.67 1.70 1.59 1.54 1.45 1.35 1.42 1.33 1.26 1.22 1.19 1.18 1.21 1.22 1.22 1.19
1.46 1.42 1.46 1.46 1.71 1.82 1.64 1.54 1.42 1.32 1.52 1.55 1.54 1.63 1.74 1.77 1.76 1.82 1.87 1.83 1.74 1.67 1.58 1.49 1.41 1.49 1.58 1.49 1.42 1.47 1.39 1.31 1.24 1.25 1.27 1.28 1.32 1.35
1.54 1.47 1.64 1.56 1.62 1.62 1.51 1.65 1.56 1.40 1.33 1.31 1.31 1.36 1.41 1.50 1.59 1.56 1.69 1.74 1.65 1.68 1.52 1.46 1.44 1.52 1.58 1.50 1.35 1.31 1.35 1.41 1.35 1.30 1.34 1.36 1.38 1.31
1.46 1.46 1.43 1.59 1.44 1.43 1.45 1.51 1.64 1.61 1.56 1.56 1.47 1.37 1.32 1.33 1.32 1.38 1.52 1.62 1.63 1.59 1.47 1.44 1.48 1.54 1.48 1.36 1.34 1.22 1.14 1.15 1.17 1.14 1.18 1.29 1.36 1.29
1.29 1.17 1.18 1.35 1.24 1.23 1.23 1.33 1.53 1.56 1.51 1.57 1.51 1.40 1.30 1.24 1.23 1.26 1.40 1.49 1.49 1.48 1.52 1.51 1.51 1.51 1.50 1.31 1.24 1.22 1.17 1.14 1.13 1.10 1.04 1.22 1.30 1.36
1.11 1.15 1.09 1.08 1.08 1.01 1.06 1.21 1.29 1.42 1.51 1.53 1.40 1.28 1.24 1.26 1.28 1.29 1.29 1.37 1.42 1.41 1.41 1.40 1.45 1.51 1.56 1.42 1.27 1.21 1.22 1.25 1.22 1.19 1.15 1.11 1.11 1.18
0.94 0.88 0.89 0.91 0.92 0.91 0.92 0.94 1.03 1.31 1.53 1.48 1.37 1.29 1.28 1.32 1.38 1.41 1.39 1.35 1.40 1.41 1.41 1.42 1.39 1.43 1.41 1.32 1.32 1.30 1.25 1.25 1.24 1.28 1.29 1.24 1.15 1.10
1.10 1.01 0.96 0.90 0.89 0.89 0.88 0.95 1.09 1.24 1.41 1.36 1.38 1.33 1.34 1.40 1.41 1.45 1.54 1.52 1.46 1.38 1.44 1.54 1.60 1.58 1.50 1.44 1.41 1.34 1.35 1.30 1.30 1.37 1.41 1.36 1.24 1.11
1.17 1.11 1.14 1.10 1.07 1.04 1.00 0.96 0.99 1.09 1.19 1.29 1.32 1.35 1.37 1.40 1.40 1.43 1.50 1.53 1.50 1.43 1.38 1.47 1.65 1.79 1.76 1.61 1.42 1.35 1.41 1.44 1.43 1.47 1.46 1.38 1.23 1.15
1.05 1.04 1.08 1.09 1.07 1.06 1.03 1.00 0.99 1.00 1.07 1.19 1.34 1.44 1.47 1.49 1.52 1.52 1.52 1.53 1.47 1.40 1.38 1.41 1.57 1.75 1.82 1.63 1.39 1.26 1.31 1.39 1.45 1.45 1.42 1.34 1.20 1.11
0.89 0.98 1.01 1.05 1.04 1.03 1.00 0.97 0.96 0.96 1.01 1.07 1.19 1.33 1.51 1.63 1.65 1.64 1.63 1.64 1.61 1.51 1.46 1.45 1.45 1.54 1.67 1.59 1.39 1.22 1.23 1.31 1.37 1.36 1.31 1.28 1.23 1.26
0.71 0.82 0.89 0.94 0.94 0.97 1.00 1.03 1.04 1.03 1.02 1.04 1.08 1.13 1.26 1.45 1.57 1.63 1.70 1.83 1.80 1.68 1.60 1.54 1.51 1.60 1.54 1.55 1.44 1.14 1.07 1.15 1.23 1.26 1.30 1.37 1.32 1.23
0.71 0.76 0.82 0.88 0.93 0.97 1.00 1.02 1.02 1.02 1.03 1.05 1.07 1.11 1.17 1.26 1.35 1.44 1.53 1.65 1.73 1.75 1.70 1.62 1.59 1.66 1.65 1.68 1.51 1.24 1.12 1.10 1.14 1.26 1.31 1.42 1.41 1.29
0.71 0.73 0.75 0.81 0.86 0.93 1.07 1.13 1.10 1.07 1.07 1.11 1.18 1.21 1.22 1.27 1.27 1.32 1.37 1.46 1.56 1.60 1.65 1.67 1.62 1.60 1.59 1.55 1.53 1.43 1.30 1.24 1.20 1.19 1.14 1.25 1.29 1.21